When you browse on this site, cookies collect data to enhance your experience and personalize the content and advertising you see.
Visit our Privacy Policy to learn more. By continuing to use the site, you agree to this use of cookies and data.
  • In Netherlands
  • List of Countries
  • For 7 days
  • Water Temperature
  • Weather Map
  • Weather Widgets
  • user-avatar
    Login

    Hourly Weather Przechowko

    Today, 20 September, Friday

    Time Temperature Precipitation Wind Pressure Humidity
    00:00 +8°C° 0 mm 3 mps 765 mmHg 77%
    01:00 +8°C° 0 mm 3 mps 765 mmHg 77%
    02:00 +7°C° 0 mm 3 mps 765 mmHg 76%
    03:00 +7°C° 0 mm 2 mps 765 mmHg 75%
    04:00 +7°C° 0 mm 2 mps 765 mmHg 75%
    05:00 +7°C° 0 mm 2 mps 765 mmHg 72%
    06:00 +8°C° 0 mm 3 mps 765 mmHg 70%
    07:00 +8°C° 0 mm 3 mps 765 mmHg 68%
    08:00 +10°C° 0 mm 3 mps 765 mmHg 61%
    09:00 +12°C° 0 mm 3 mps 765 mmHg 53%
    10:00 +14°C° 0 mm 3 mps 765 mmHg 46%
    11:00 +14°C° 0 mm 3 mps 765 mmHg 44%
    12:00 +16°C° 0 mm 3 mps 765 mmHg 42%
    13:00 +17°C° 0 mm 4 mps 765 mmHg 41%
    14:00 +16°C° 0 mm 3 mps 764 mmHg 49%
    15:00 +14°C° 0 mm 3 mps 764 mmHg 57%
    16:00 +13°C° 0 mm 3 mps 764 mmHg 65%
    17:00 +13°C° 0 mm 3 mps 764 mmHg 68%
    18:00 +12°C° 0 mm 3 mps 764 mmHg 71%
    19:00 +12°C° 0 mm 3 mps 764 mmHg 74%
    20:00 +12°C° 0 mm 4 mps 763 mmHg 77%
    21:00 +12°C° 0 mm 4 mps 763 mmHg 80%
    22:00 +12°C° 0 mm 4 mps 763 mmHg 83%
    23:00 +12°C° 0 mm 4 mps 763 mmHg 86%

    Tomorrow, 21 September, Saturday

    Time Temperature Precipitation Wind Pressure Humidity
    00:00 +11°C° 0 mm 4 mps 763 mmHg 88%
    01:00 +11°C° 0 mm 4 mps 763 mmHg 91%
    02:00 +11°C° 0 mm 4 mps 763 mmHg 90%
    03:00 +11°C° 0 mm 4 mps 762 mmHg 90%
    04:00 +11°C° 0 mm 4 mps 762 mmHg 89%
    05:00 +12°C° 0 mm 4 mps 762 mmHg 89%
    06:00 +12°C° 0 mm 4 mps 762 mmHg 88%
    07:00 +12°C° 0 mm 4 mps 762 mmHg 87%
    08:00 +13°C° 0 mm 4 mps 762 mmHg 84%
    09:00 +13°C° 0 mm 4 mps 762 mmHg 82%
    10:00 +13°C° 0 mm 4 mps 763 mmHg 79%
    11:00 +14°C° 0 mm 4 mps 763 mmHg 77%
    12:00 +15°C° 0 mm 4 mps 762 mmHg 74%
    13:00 +15°C° 0 mm 4 mps 762 mmHg 71%
    14:00 +15°C° 0 mm 4 mps 762 mmHg 70%
    15:00 +17°C° 0 mm 3 mps 762 mmHg 69%
    16:00 +17°C° 0 mm 3 mps 762 mmHg 68%
    17:00 +16°C° 0 mm 2 mps 762 mmHg 74%
    18:00 +14°C° 0 mm 2 mps 762 mmHg 80%
    19:00 +13°C° 0 mm 1 mps 762 mmHg 86%
    20:00 +13°C° 0 mm 1 mps 762 mmHg 88%
    21:00 +12°C° 0 mm 1 mps 762 mmHg 89%
    22:00 +12°C° 0 mm 1 mps 762 mmHg 91%
    23:00 +12°C° 0 mm 1 mps 762 mmHg 91%

    Day after tomorrow, 22 September, Sunday

    Time Temperature Precipitation Wind Pressure Humidity
    00:00 +10°C° 0 mm 2 mps 761 mmHg 92%
    01:00 +10°C° 0 mm 2 mps 761 mmHg 92%
    02:00 +10°C° 0 mm 2 mps 761 mmHg 93%
    03:00 +10°C° 0 mm 2 mps 761 mmHg 93%
    04:00 +10°C° 0 mm 2 mps 761 mmHg 93%
    05:00 +10°C° 0 mm 2 mps 761 mmHg 90%
    06:00 +12°C° 0 mm 2 mps 761 mmHg 88%
    07:00 +13°C° 0 mm 2 mps 761 mmHg 85%
    08:00 +15°C° 0 mm 2 mps 761 mmHg 76%
    09:00 +17°C° 0 mm 2 mps 761 mmHg 68%
    10:00 +19°C° 0 mm 2 mps 760 mmHg 59%
    11:00 +20°C° 0 mm 2 mps 760 mmHg 54%
    12:00 +21°C° 0 mm 2 mps 760 mmHg 49%
    13:00 +23°C° 0 mm 2 mps 760 mmHg 44%
    14:00 +23°C° 0 mm 2 mps 759 mmHg 45%
    15:00 +23°C° 0 mm 1 mps 759 mmHg 45%
    16:00 +23°C° 0 mm 1 mps 758 mmHg 46%
    17:00 +21°C° 0 mm 1 mps 758 mmHg 52%
    18:00 +19°C° 0 mm 1 mps 758 mmHg 57%
    19:00 +16°C° 0 mm 1 mps 758 mmHg 63%
    20:00 +16°C° 0 mm 1 mps 758 mmHg 65%
    21:00 +15°C° 0 mm 1 mps 758 mmHg 66%
    22:00 +15°C° 0 mm 1 mps 758 mmHg 68%
    23:00 +14°C° 0 mm 1 mps 757 mmHg 68%

    23 September, Monday

    Time Temperature Precipitation Wind Pressure Humidity
    00:00 +14°C° 0 mm 1 mps 757 mmHg 69%
    01:00 +13°C° 0 mm 2 mps 757 mmHg 70%
    02:00 +13°C° 0 mm 2 mps 757 mmHg 70%
    03:00 +13°C° 0 mm 2 mps 756 mmHg 71%
    04:00 +13°C° 0 mm 2 mps 756 mmHg 71%
    05:00 +13°C° 0 mm 2 mps 756 mmHg 72%
    06:00 +13°C° 0 mm 2 mps 756 mmHg 72%
    07:00 +12°C° 0 mm 3 mps 755 mmHg 73%
    08:00 +14°C° 0 mm 3 mps 755 mmHg 66%
    09:00 +17°C° 0 mm 4 mps 755 mmHg 59%
    10:00 +19°C° 0 mm 4 mps 755 mmHg 52%
    11:00 +20°C° 0 mm 4 mps 755 mmHg 48%
    12:00 +21°C° 0 mm 4 mps 755 mmHg 44%
    13:00 +22°C° 0 mm 4 mps 754 mmHg 40%
    14:00 +22°C° 0 mm 4 mps 754 mmHg 42%
    15:00 +22°C° 0 mm 4 mps 754 mmHg 43%
    16:00 +22°C° 0 mm 3 mps 754 mmHg 45%
    17:00 +20°C° 0 mm 3 mps 754 mmHg 51%
    18:00 +18°C° 0 mm 3 mps 754 mmHg 58%
    19:00 +16°C° 0 mm 2 mps 754 mmHg 64%
    20:00 +15°C° 0 mm 2 mps 754 mmHg 67%
    21:00 +15°C° 0 mm 2 mps 754 mmHg 70%
    22:00 +14°C° 0 mm 1 mps 754 mmHg 73%
    23:00 +14°C° 0 mm 1 mps 755 mmHg 76%

    24 September, Tuesday

    Time Temperature Precipitation Wind Pressure Humidity
    00:00 +13°C° 0 mm 1 mps 755 mmHg 80%
    01:00 +13°C° 0 mm 1 mps 755 mmHg 83%
    02:00 +12°C° 0 mm 1 mps 755 mmHg 85%
    03:00 +12°C° 0 mm 1 mps 755 mmHg 87%
    04:00 +12°C° 0 mm 1 mps 755 mmHg 89%
    05:00 +12°C° 0 mm 1 mps 755 mmHg 88%
    06:00 +13°C° 0 mm 1 mps 756 mmHg 86%
    07:00 +13°C° 0 mm 1 mps 756 mmHg 84%
    08:00 +15°C° 0 mm 1 mps 756 mmHg 76%
    09:00 +18°C° 0 mm 1 mps 757 mmHg 68%
    10:00 +20°C° 0 mm 1 mps 757 mmHg 60%
    11:00 +21°C° 0 mm 1 mps 757 mmHg 56%
    12:00 +22°C° 0 mm 1 mps 757 mmHg 52%
    13:00 +23°C° 0 mm 1 mps 756 mmHg 48%
    14:00 +23°C° 0 mm 1 mps 756 mmHg 48%
    15:00 +23°C° 0 mm 1 mps 756 mmHg 48%
    16:00 +23°C° 0 mm 1 mps 756 mmHg 48%
    17:00 +21°C° 0 mm 1 mps 756 mmHg 54%
    18:00 +19°C° 0 mm 1 mps 756 mmHg 60%
    19:00 +17°C° 0 mm 2 mps 756 mmHg 66%
    20:00 +16°C° 0 mm 2 mps 756 mmHg 68%
    21:00 +16°C° 0 mm 2 mps 756 mmHg 71%
    22:00 +15°C° 0 mm 2 mps 756 mmHg 73%
    23:00 +15°C° 0 mm 2 mps 756 mmHg 75%

    25 September, Wednesday

    Time Temperature Precipitation Wind Pressure Humidity
    00:00 +15°C° 0 mm 2 mps 756 mmHg 77%
    01:00 +14°C° 0 mm 2 mps 756 mmHg 79%
    02:00 +14°C° 0 mm 2 mps 755 mmHg 79%
    03:00 +14°C° 0 mm 2 mps 755 mmHg 79%
    04:00 +14°C° 0 mm 2 mps 755 mmHg 79%
    05:00 +13°C° 0.1 mm 3 mps 754 mmHg 79%
    06:00 +13°C° 0.1 mm 3 mps 754 mmHg 80%
    07:00 +13°C° 0.1 mm 3 mps 754 mmHg 81%
    08:00 +14°C° 0.1 mm 3 mps 754 mmHg 79%
    09:00 +16°C° 0.1 mm 3 mps 754 mmHg 77%
    10:00 +17°C° 0.1 mm 3 mps 754 mmHg 75%
    11:00 +18°C° 0.1 mm 3 mps 753 mmHg 73%
    12:00 +18°C° 0.1 mm 4 mps 753 mmHg 70%
    13:00 +19°C° 0.1 mm 4 mps 752 mmHg 68%
    14:00 +19°C° 0.5 mm 3 mps 752 mmHg 71%
    15:00 +18°C° 0.5 mm 3 mps 752 mmHg 74%
    16:00 +18°C° 0.5 mm 2 mps 751 mmHg 77%
    17:00 +17°C° 0.4 mm 2 mps 751 mmHg 80%
    18:00 +17°C° 0.4 mm 2 mps 751 mmHg 84%
    19:00 +16°C° 0.4 mm 2 mps 751 mmHg 87%
    20:00 +16°C° 0.5 mm 2 mps 751 mmHg 89%
    21:00 +16°C° 0.5 mm 1 mps 751 mmHg 91%
    22:00 +15°C° 0.5 mm 1 mps 751 mmHg 93%
    23:00 +15°C° 0.2 mm 1 mps 750 mmHg 93%
    Show more